CST,Max TemperatureF,Mean TemperatureF,Min TemperatureF,Max Dew PointF,MeanDew PointF,Min DewpointF,Max Humidity, Mean Humidity, Min Humidity, Max Sea Level PressureIn, Mean Sea Level PressureIn, Min Sea Level PressureIn, Max VisibilityMiles, Mean VisibilityMiles, Min VisibilityMiles, Max Wind SpeedMPH, Mean Wind SpeedMPH, Max Gust SpeedMPH,PrecipitationIn, CloudCover, Events, WindDirDegrees
2013-2-1,0,-7,-14,-6,-13,-18,84,67,51,30.15,30.08,30.02,10,9,3,10,5,,0.00,4,Snow,250
2013-2-2,14,2,-9,1,-4,-13,92,70,48,30.06,30.00,29.89,10,9,2,7,1,,0.00,4,Snow,228
2013-2-3,12,4,-4,3,-1,-8,85,73,48,29.94,29.90,29.83,10,8,2,13,5,21,0.00,5,Snow,292
2013-2-4,15,-2,-18,0,-8,-22,85,61,29,29.96,29.90,29.78,10,10,5,7,1,,0.00,1,,247
2013-2-5,21,7,-7,18,9,-9,100,86,57,30.03,29.78,29.61,10,6,0,12,6,16,0.00,6,Snow,258
2013-2-6,24,8,-9,21,8,-15,93,87,63,30.10,30.05,29.99,10,7,0,12,2,,0.00,6,Snow,145
2013-2-7,24,22,19,23,21,16,100,90,80,30.22,30.08,30.03,10,6,2,18,7,28,0.00,8,Snow,42
2013-2-8,26,11,-4,16,7,-8,93,80,55,30.34,30.28,30.23,10,9,1,10,3,,0.00,1,Snow,21
2013-2-9,24,12,1,25,16,0,100,91,80,30.27,30.12,29.99,10,6,2,14,6,18,0.00,6,Snow,164
2013-2-10,35,30,24,34,29,23,100,95,87,29.99,29.62,29.24,10,4,0,15,6,24,0.00,8,Snow,118
2013-2-11,35,29,23,36,27,19,100,91,86,29.90,29.56,29.23,10,6,1,9,3,,0.00,8,Snow,304
2013-2-12,28,21,14,23,18,12,100,89,74,29.94,29.85,29.73,10,8,3,12,4,,0.00,5,Snow,231
2013-2-13,35,27,19,30,25,18,100,89,75,29.72,29.64,29.59,10,7,0,8,2,,0.00,6,Snow,226
2013-2-14,30,21,10,28,20,7,100,85,73,30.03,29.78,29.59,10,8,2,14,6,20,0.00,6,Snow,343
2013-2-15,17,8,-2,7,3,-6,92,75,49,30.15,30.10,30.03,10,10,4,10,3,17,0.00,4,Snow,316
2013-2-16,15,0,-16,0,-10,-20,92,72,38,30.13,30.10,30.08,10,9,1,5,0,,0.00,1,Snow,7
2013-2-17,24,3,-18,14,-4,-24,84,64,40,30.10,29.97,29.78,10,10,10,14,4,21,0.00,1,,161
2013-2-18,33,28,23,30,24,16,100,83,55,29.77,29.55,29.47,10,7,0,14,7,22,0.00,5,Snow,175
2013-2-19,21,12,3,18,2,-2,93,75,62,30.15,29.86,29.54,10,7,1,15,11,24,0.00,7,Snow,315
2013-2-20,21,11,1,9,5,0,92,76,54,30.39,30.31,30.15,10,10,10,14,8,22,0.00,3,Snow,356
2013-2-21,28,10,-9,19,7,-15,93,76,51,30.42,30.30,30.10,10,8,1,12,4,18,0.00,2,Snow,58
2013-2-22,28,19,10,25,20,9,100,90,80,30.11,29.88,29.77,10,4,1,12,7,18,0.00,8,Snow,68
2013-2-23,30,20,10,28,22,9,100,92,80,29.86,29.78,29.73,10,6,2,7,1,,0.00,8,Snow,268
2013-2-24,32,28,24,27,25,21,100,84,69,30.07,30.00,29.87,10,10,10,6,0,,0.00,8,Snow,188
2013-2-25,33,22,10,28,23,9,100,89,75,30.09,30.07,30.03,10,8,0,7,1,,0.00,7,Fog,184
2013-2-26,39,34,28,28,26,23,93,76,52,30.06,29.94,29.84,10,9,4,18,6,26,0.00,5,Snow,51
2013-2-27,35,32,30,28,26,25,87,81,70,29.92,29.83,29.78,10,10,3,22,15,29,0.00,8,Snow,19
2013-2-28,30,24,19,28,20,14,93,80,69,30.20,30.07,29.92,10,10,4,22,13,29,0.00,8,Snow,21